Retour au catalogue

ARIANE 44L+ R/B

ActifGTO
NORAD 23177·ROCKET BODY·🇫🇷 France

Lancé Jul 8, 1994 depuis Guiana Space Centre

Loading…

TLE

PériméSource: Space-Track

Époque: Sep 14, 2026, 04:32 UTC

1 23177U 94040C   26257.18889306  .00000188  00000-0  61267-3 0  9994
2 23177   7.6449  73.7245 7182115  39.9634 355.2664  2.33320262266513

Suivez ARIANE 44L+ R/B en temps réel avec AllMySat

Download on the App Store